Location: Oregon Star Party
(44.2935°N, 120.1332°W)
Time: 13:47:26
(UTC-07:00)

Amateur Radio Satellites - All Passes

Search period start: 26 June 2016 13:17
Search period end: 27 June 2016 13:17
Location: Oregon Star Party, 44.2935°N, 120.1332°W

Satellite Date Start Highest point End Downlink Frequencies (MHz)
Time Altitude Azimuth
Gurwin Techsat 1B 26 Jun 13:18:28 13:23:03 31° 65° (ENE) 13:27:40 435.225
Oscar 19 26 Jun 13:20:12 13:25:19 68° 73° (ENE) 13:30:26 437.125/150
O/OREOS (USA 219) 26 Jun 13:24:05 13:28:35 83° 247° (WSW) 13:33:04 437.305
50 SAT 26 Jun 13:34:42 13:37:48 25° 292° (WNW) 13:40:53 437.505
BEESAT 2 26 Jun 13:35:14 13:38:29 24° 246° (WSW) 13:41:43 435.950
ITAMSAT 1 26 Jun 13:39:19 13:42:53 19° 60° (ENE) 13:46:26 435.822/435.867
ISS 26 Jun 13:40:35 13:43:15 22° 5° (N) 13:45:55 145.825
JAS-2 26 Jun 13:41:14 13:48:29 43° 263° (W) 13:55:13 435.910
ESTCUBE 1 26 Jun 13:41:42 13:45:12 22° 295° (WNW) 13:48:40 437.505/2401.250
YUBILEINY 26 Jun 13:46:14 13:54:57 86° 278° (W) 14:03:48 435.215
AO-7 26 Jun 13:50:49 13:57:00 24° 49° (NE) 14:03:11 29.400- 29.500
AISAT 26 Jun 13:55:43 13:59:11 23° 295° (WNW) 14:02:38 437.250
PCSat 26 Jun 13:55:45 13:58:06 13° 258° (WSW) 14:00:27 145.827
AIST 2 26 Jun 13:56:33 14:00:27 37° 48° (NE) 14:04:19 435.215
Cosmos 2491 26 Jun 13:59:51 14:07:10 32° 277° (W) 14:14:29 435.465 / 435.565
TISAT 1 26 Jun 14:07:48 14:11:58 61° 101° (E) 14:16:08 437.305
UKube-1 26 Jun 14:08:45 14:12:22 27° 294° (WNW) 14:15:58 .
SPROUT 26 Jun 14:14:47 14:18:33 30° 291° (WNW) 14:22:18 437.525
RS-15 26 Jun 14:14:50 14:26:10 58° 316° (NW) 14:38:10 29.354- 29.394
DX 1 26 Jun 14:24:53 14:27:34 16° 298° (WNW) 14:30:15 434.975-435.025
Cosmos 2504 26 Jun 14:28:33 14:36:26 61° 91° (E) 14:44:53 435.465 / 435.565
Gurwin Techsat 1B 26 Jun 14:57:58 15:02:53 38° 263° (W) 15:07:50 435.225
Oscar 19 26 Jun 15:02:01 15:05:07 16° 270° (W) 15:08:14 437.125/150
SWISSCUBE 26 Jun 15:03:05 15:07:45 48° 100° (E) 15:12:21 437.505
ITAMSAT 1 26 Jun 15:16:39 15:21:50 66° 258° (WSW) 15:27:03 435.822/435.867
ISS 26 Jun 15:17:01 15:20:13 49° 25° (NNE) 15:23:25 145.825
SO-50 26 Jun 15:25:33 15:26:54 11° 106° (ESE) 15:28:14 436.795
ITUPSAT 1 26 Jun 15:28:02 15:32:53 75° 103° (ESE) 15:37:40 437.325
BEESAT 26 Jun 15:28:34 15:33:23 77° 103° (ESE) 15:38:10 436.000
AIST 2 26 Jun 15:35:21 15:38:46 25° 246° (WSW) 15:42:10 435.215
AO-7 26 Jun 15:40:22 15:48:43 88° 70° (ENE) 15:57:09 29.400- 29.500
HORYU 2 26 Jun 15:44:43 15:47:26 16° 61° (ENE) 15:50:09 437.375
TISAT 1 26 Jun 15:44:56 15:47:09 14° 298° (WNW) 15:49:22 437.305
YUBILEINY 26 Jun 15:47:09 15:53:11 20° 301° (WNW) 15:59:18 435.215
Cosmos 2504 26 Jun 16:23:14 16:30:22 32° 294° (WNW) 16:37:57 435.465 / 435.565
MOZHAYETS 4 26 Jun 16:28:07 16:32:28 37° 97° (E) 16:36:45
RS-15 26 Jun 16:31:59 16:42:01 30° 348° (NNW) 16:52:23 29.354- 29.394
NOAA 15 26 Jun 16:39:11 16:42:13 16° 58° (ENE) 16:45:15 137.62
SWISSCUBE 26 Jun 16:41:36 16:45:13 22° 297° (WNW) 16:48:48 437.505
NOAA 18 26 Jun 16:44:28 16:47:30 15° 56° (NE) 16:50:31 137.9125
BRITE-PL 26 Jun 16:47:30 16:50:06 14° 62° (ENE) 16:52:36 437.365/2234.400
ISS 26 Jun 16:53:44 16:56:30 25° 223° (SW) 16:59:16 145.825
KKS-1 26 Jun 16:54:11 16:58:38 75° 103° (ESE) 17:03:05 437.445
SO-50 26 Jun 17:01:42 17:06:37 82° 122° (ESE) 17:11:30 436.795
Cubesat XI-IV 26 Jun 17:07:19 17:11:04 20° 60° (ENE) 17:14:51 437.490
ITUPSAT 1 26 Jun 17:07:27 17:10:06 15° 301° (WNW) 17:12:45 437.325
BEESAT 26 Jun 17:08:01 17:10:34 14° 301° (WNW) 17:13:04 436.000
HORYU 2 26 Jun 17:19:11 17:23:32 58° 259° (W) 17:27:56 437.375
AIST 1 26 Jun 17:24:39 17:28:48 46° 93° (E) 17:32:56
Cosmos 2499 26 Jun 17:26:57 17:28:07 10° 69° (ENE) 17:29:18 435.465 / 435.565
GOMX 1 26 Jun 17:32:16 17:35:04 16° 64° (ENE) 17:37:46 467.674
STARS 26 Jun 17:32:29 17:36:53 84° 286° (WNW) 17:41:18 437.465
AO-7 26 Jun 17:36:42 17:42:30 20° 270° (W) 17:48:22 29.400- 29.500
CUTE-I 26 Jun 17:41:01 17:45:52 37° 67° (ENE) 17:50:45 437.470
GONETS M04 26 Jun 17:49:25 17:56:16 27° 81° (E) 18:03:06
CUBESAT XI-V 26 Jun 17:49:44 17:53:54 32° 96° (E) 17:58:01 437.345
LilacSat-2 26 Jun 18:04:50 18:08:27 45° 73° (ENE) 18:12:07 437.200
MOZHAYETS 4 26 Jun 18:05:40 18:09:26 25° 294° (WNW) 18:13:11
CUSAT 1 26 Jun 18:07:20 18:09:57 16° 62° (ENE) 18:12:13 437.405
DANDE 26 Jun 18:10:13 18:12:06 12° 53° (NE) 18:13:50 436.750
NOAA 15 26 Jun 18:16:00 18:21:18 83° 254° (WSW) 18:26:38 137.62
NOAA 18 26 Jun 18:21:55 18:27:23 89° 261° (W) 18:32:55 137.9125
BRITE-PL 26 Jun 18:22:57 18:28:06 77° 257° (WSW) 18:32:51 437.365/2234.400
KKS-1 26 Jun 18:32:36 18:34:37 13° 300° (WNW) 18:36:38 437.445
DOVE 4 26 Jun 18:42:09 18:46:06 35° 70° (ENE) 18:49:55 437.250
SO-50 26 Jun 18:44:06 18:47:41 20° 323° (NW) 18:51:16 436.795
Cubesat XI-IV 26 Jun 18:45:20 18:50:38 65° 258° (WSW) 18:56:00 437.490
RS-15 26 Jun 18:48:38 18:59:24 34° 22° (NNE) 19:10:17 29.354- 29.394
AIST 1 26 Jun 19:03:51 19:06:40 17° 291° (WNW) 19:09:29
GOMX 1 26 Jun 19:08:12 19:12:49 57° 259° (W) 19:17:10 467.674
Cosmos 2499 26 Jun 19:11:06 19:19:06 57° 90° (E) 19:27:38 435.465 / 435.565
STARS 26 Jun 19:12:16 19:12:31 10° 302° (WNW) 19:12:45 437.465
HO-68 26 Jun 19:19:11 19:25:52 45° 64° (ENE) 19:32:36 435.675
CUTE-I 26 Jun 19:21:13 19:25:56 32° 264° (W) 19:30:42 437.470
AAUSAT CUBESAT 2 26 Jun 19:27:09 19:28:49 12° 61° (ENE) 19:30:28 437.432
CUBESAT XI-V 26 Jun 19:27:15 19:31:12 28° 293° (WNW) 19:35:07 437.345
LilacSat-2 26 Jun 19:41:08 19:43:02 13° 269° (W) 19:44:56 437.200
GONETS M04 26 Jun 19:43:37 19:52:17 70° 281° (WNW) 20:01:00
CANX-2 26 Jun 19:46:14 19:50:22 49° 72° (ENE) 19:54:33 2200.000
CUSAT 1 26 Jun 19:48:51 19:52:16 27° 271° (W) 19:55:01 437.405
DANDE 26 Jun 19:50:50 19:56:20 87° 258° (WSW) 20:00:20 436.750
CINEMA 3 26 Jun 19:53:02 19:57:06 57° 73° (ENE) 20:01:11 145.822/145.860
STRAND 1 26 Jun 19:55:50 20:00:46 43° 99° (E) 20:05:38 437.568
COMPASS 1 26 Jun 19:56:47 20:00:27 29° 68° (ENE) 20:04:07 437.405
NOAA 15 26 Jun 20:00:47 20:01:52 11° 273° (W) 20:02:59 137.62
M-CUBED/EXP-1 PRIME 26 Jun 20:03:07 20:05:46 23° 63° (ENE) 20:08:26 437.505
CUBEBUG 2 26 Jun 20:05:01 20:08:23 24° 66° (ENE) 20:11:50 437.445
CUTE 1.7 + AOD 2 26 Jun 20:06:31 20:10:46 72° 75° (ENE) 20:15:05 437.475
NOAA 18 26 Jun 20:06:37 20:08:48 12° 272° (W) 20:11:00 137.9125
SEEDS 26 Jun 20:14:25 20:18:36 64° 74° (ENE) 20:22:50 437.485
DOVE 4 26 Jun 20:20:32 20:23:54 22° 266° (W) 20:27:11 437.250
ZACube-1 26 Jun 20:40:16 20:43:48 27° 67° (ENE) 20:47:24 437.345
Oscar 11 26 Jun 20:53:39 20:57:42 40° 71° (ENE) 21:01:48 145.826/435.025
AO-85 26 Jun 20:55:49 20:57:36 12° 106° (ESE) 20:59:21 145.980
UWE-3 26 Jun 20:55:56 21:00:01 58° 73° (ENE) 21:04:14 435.000/436.395/437.385
FUNcube-1 26 Jun 20:58:34 21:02:27 38° 70° (ENE) 21:06:26 145.935
AUBIESAT-1 26 Jun 20:59:16 21:02:33 80° 251° (WSW) 21:05:54 437.475
AAUSAT CUBESAT 2 26 Jun 20:59:32 21:03:43 72° 258° (WSW) 21:07:56 437.432
RS-15 26 Jun 21:02:01 21:14:24 75° 52° (NE) 21:26:42 29.354- 29.394
Cosmos 2499 26 Jun 21:05:12 21:12:40 35° 292° (WNW) 21:20:34 435.465 / 435.565
HO-68 26 Jun 21:07:03 21:13:38 39° 263° (W) 21:20:17 435.675
CANX-2 26 Jun 21:23:52 21:26:31 16° 269° (W) 21:29:11 2200.000
DELFI C3 26 Jun 21:28:34 21:32:22 42° 72° (ENE) 21:36:13 145.870
COMPASS 1 26 Jun 21:32:27 21:35:59 26° 265° (W) 21:39:33 437.405
CINEMA 3 26 Jun 21:32:50 21:34:39 13° 271° (W) 21:36:29 145.822/145.860
STRAND 1 26 Jun 21:35:28 21:39:42 26° 296° (WNW) 21:43:55 437.568
M-CUBED/EXP-1 PRIME 26 Jun 21:37:54 21:40:22 19° 260° (W) 21:42:48 437.505
CUBEBUG 2 26 Jun 21:41:12 21:44:53 31° 264° (W) 21:48:41 437.445
CUTE 1.7 + AOD 2 26 Jun 21:45:59 21:47:07 11° 272° (W) 21:48:16 437.475
GONETS M04 26 Jun 21:46:13 21:51:00 15° 305° (NW) 21:55:47
PRISM 26 Jun 21:47:46 21:51:52 84° 284° (WNW) 21:55:56 437.425
SEEDS 26 Jun 21:52:58 21:54:44 12° 271° (W) 21:56:31 437.485
YUBILEINY 26 Jun 22:01:21 22:03:45 11° 50° (NE) 22:06:08 435.215
UNISAT 6 26 Jun 22:02:28 22:03:42 11° 88° (E) 22:04:57 437.425
HUMSAT D 26 Jun 22:10:16 22:14:22 59° 73° (ENE) 22:18:32 437.325/437.525
ZACube-1 26 Jun 22:16:23 22:20:01 28° 265° (W) 22:23:44 437.345
Oscar 11 26 Jun 22:30:49 22:34:00 20° 268° (W) 22:37:13 145.826/435.025
AO-85 26 Jun 22:31:53 22:37:19 76° 122° (ESE) 22:42:34 145.980
UWE-3 26 Jun 22:34:57 22:36:55 13° 271° (W) 22:38:54 435.000/436.395/437.385
FUNcube-1 26 Jun 22:35:48 22:38:52 20° 268° (W) 22:41:59 145.935
CUBEBUG 1 26 Jun 22:35:53 22:38:31 16° 62° (ENE) 22:41:09 437.445
VELOX 1 26 Jun 22:38:38 22:41:21 16° 62° (ENE) 22:44:05 145.980
ANTELSAT 26 Jun 22:40:06 22:44:03 27° 95° (E) 22:48:01 437.575/2403.000
50 SAT 26 Jun 22:41:27 22:43:34 15° 64° (ENE) 22:45:43 437.505
DELFI C3 26 Jun 23:04:51 23:07:26 16° 268° (W) 23:10:03 145.870
ESTCUBE 1 26 Jun 23:05:09 23:09:28 45° 71° (ENE) 23:13:48 437.505/2401.250
RS-15 26 Jun 23:15:21 23:26:00 37° 255° (WSW) 23:36:34 29.354- 29.394
Cosmos 2491 26 Jun 23:15:30 23:18:34 12° 71° (ENE) 23:21:38 435.465 / 435.565
AISAT 26 Jun 23:17:33 23:21:39 40° 70° (ENE) 23:25:47 437.250
UKube-1 26 Jun 23:28:33 23:32:22 32° 68° (ENE) 23:36:13 .
TIGRISAT 26 Jun 23:31:51 23:36:29 84° 101° (E) 23:41:11 435.000
SPROUT 26 Jun 23:34:14 23:37:41 25° 67° (ENE) 23:41:09 437.525
UNISAT 6 26 Jun 23:36:20 23:40:58 83° 285° (WNW) 23:45:40 437.425
DX 1 26 Jun 23:44:17 23:48:33 58° 72° (ENE) 23:52:49 434.975-435.025
HUMSAT D 26 Jun 23:48:28 23:50:23 13° 271° (W) 23:52:20 437.325/437.525
SO-50 26 Jun 23:52:10 23:55:41 20° 37° (NE) 23:59:07 436.795
YUBILEINY 26 Jun 23:54:29 00:03:05 53° 75° (ENE) 00:11:39 435.215
BUGSAT 1 27 Jun 00:05:22 00:07:32 14° 91° (E) 00:09:43 437.445
CUBEBUG 1 27 Jun 00:10:05 00:14:23 56° 259° (W) 00:18:40 437.445
VELOX 1 27 Jun 00:13:03 00:17:23 56° 259° (W) 00:21:45 145.980
50 SAT 27 Jun 00:13:21 00:16:54 43° 261° (W) 00:20:30 437.505
NANOSAT C BR1 27 Jun 00:13:58 00:18:00 41° 98° (E) 00:22:01 145.865
AO-85 27 Jun 00:14:05 00:18:20 23° 321° (NW) 00:22:26 145.980
QB50P1 27 Jun 00:15:48 00:19:54 45° 99° (E) 00:23:59 145.935-145.965
ANTELSAT 27 Jun 00:16:36 00:20:47 34° 291° (WNW) 00:25:00 437.575/2403.000
POPSAT HIP 1 27 Jun 00:18:48 00:22:56 48° 99° (E) 00:27:04 437.405
Cosmos 2504 27 Jun 00:19:28 00:26:45 27° 64° (ENE) 00:33:49 435.465 / 435.565
QB50P2 27 Jun 00:30:34 00:34:49 70° 101° (ESE) 00:39:05 145.880/145.840
POLYITAN 1 27 Jun 00:33:10 00:37:27 72° 101° (ESE) 00:41:43 437.675
DUCHIFAT 1 27 Jun 00:35:22 00:39:36 67° 102° (ESE) 00:43:49 145.980
ESTCUBE 1 27 Jun 00:43:11 00:46:29 20° 268° (W) 00:49:48 437.505/2401.250
JAS-2 27 Jun 00:50:23 00:54:59 25° 91° (E) 00:59:17 435.910
AISAT 27 Jun 00:54:58 00:58:17 21° 267° (W) 01:01:37 437.250
TISAT 1 27 Jun 01:00:45 01:04:48 54° 73° (ENE) 01:08:53 437.305
ITUPSAT 1 27 Jun 01:01:20 01:03:45 14° 59° (ENE) 01:06:11 437.325
BEESAT 27 Jun 01:01:29 01:03:57 14° 59° (ENE) 01:06:25 436.000
UKube-1 27 Jun 01:04:53 01:08:26 25° 265° (W) 01:12:02 .
Cosmos 2491 27 Jun 01:04:55 01:13:33 65° 93° (E) 01:22:11 435.465 / 435.565
SPROUT 27 Jun 01:09:42 01:13:30 32° 263° (W) 01:17:20 437.525
TIGRISAT 27 Jun 01:10:36 01:12:32 13° 300° (WNW) 01:14:29 435.000
UNISAT 6 27 Jun 01:15:49 01:16:56 11° 302° (WNW) 01:18:04 437.425
DX 1 27 Jun 01:22:47 01:25:06 14° 269° (W) 01:27:26 434.975-435.025
Oscar 19 27 Jun 01:30:56 01:34:45 21° 92° (E) 01:38:31 437.125/150
SO-50 27 Jun 01:32:01 01:36:42 74° 239° (WSW) 01:41:13 436.795
BUGSAT 1 27 Jun 01:39:15 01:43:13 52° 288° (WNW) 01:47:14 437.445
NANOSAT C BR1 27 Jun 01:50:23 01:53:28 20° 295° (WNW) 01:56:33 145.865
YUBILEINY 27 Jun 01:51:45 01:59:35 37° 275° (W) 02:07:25 435.215
QB50P1 27 Jun 01:52:26 01:55:22 18° 296° (WNW) 01:58:17 145.935-145.965
POPSAT HIP 1 27 Jun 01:55:33 01:58:22 18° 296° (WNW) 02:01:12 437.405
QB50P2 27 Jun 02:08:10 02:10:05 13° 299° (WNW) 02:11:59 145.880/145.840
SWISSCUBE 27 Jun 02:10:49 02:15:34 66° 73° (ENE) 02:20:21 437.505
POLYITAN 1 27 Jun 02:10:51 02:12:41 13° 299° (WNW) 02:14:32 437.675
Cosmos 2504 27 Jun 02:12:10 02:21:05 76° 265° (W) 02:29:39 435.465 / 435.565
DUCHIFAT 1 27 Jun 02:12:46 02:14:46 13° 299° (WNW) 02:16:46 145.980
JAS-2 27 Jun 02:34:54 02:40:26 46° 293° (WNW) 02:45:28 435.910
ITUPSAT 1 27 Jun 02:36:07 02:40:56 81° 258° (WSW) 02:45:47 437.325
BEESAT 27 Jun 02:36:19 02:41:05 79° 256° (WSW) 02:45:55 436.000
TISAT 1 27 Jun 02:38:39 02:40:48 14° 269° (W) 02:42:58 437.305
PCSat 27 Jun 02:52:59 02:58:19 62° 117° (ESE) 03:03:41 145.827
BEESAT 3 27 Jun 02:53:50 02:57:13 28° 116° (ESE) 03:00:38 437.485
STARS 27 Jun 02:57:18 02:58:59 12° 59° (ENE) 03:00:40 437.465
Cosmos 2491 27 Jun 03:03:35 03:11:03 30° 294° (WNW) 03:18:32 435.465 / 435.565
Oscar 19 27 Jun 03:09:23 03:14:22 52° 290° (WNW) 03:19:19 437.125/150
Gurwin Techsat 1B 27 Jun 03:11:55 03:17:17 76° 103° (ESE) 03:22:36 435.225
BEESAT 2 27 Jun 03:27:54 03:31:32 36° 117° (ESE) 03:35:13 435.950
ITAMSAT 1 27 Jun 03:27:59 03:32:53 39° 98° (E) 03:37:44 435.822/435.867
AIST 1 27 Jun 03:31:10 03:33:27 14° 68° (ENE) 03:35:45
MOZHAYETS 4 27 Jun 03:31:17 03:35:38 43° 70° (ENE) 03:40:02
O/OREOS (USA 219) 27 Jun 03:37:41 03:42:10 86° 114° (ESE) 03:46:41 437.305
AO-7 27 Jun 03:40:59 03:47:48 27° 93° (E) 03:54:32 29.400- 29.500
SWISSCUBE 27 Jun 03:51:11 03:53:49 15° 270° (W) 03:56:29 437.505
KKS-1 27 Jun 03:53:29 03:57:55 83° 72° (ENE) 04:02:21 437.445
GONETS M04 27 Jun 03:57:12 04:01:38 15° 54° (NE) 04:06:03
Cosmos 2504 27 Jun 04:08:00 04:12:52 16° 286° (WNW) 04:17:42 435.465 / 435.565
STARS 27 Jun 04:30:22 04:34:43 79° 256° (WSW) 04:39:07 437.465
BEESAT 3 27 Jun 04:31:21 04:34:51 30° 314° (NW) 04:38:23 437.485
PCSat 27 Jun 04:37:41 04:42:08 25° 317° (NW) 04:46:37 145.827
Gurwin Techsat 1B 27 Jun 04:53:17 04:56:36 17° 301° (WNW) 04:59:55 435.225
CUBESAT XI-V 27 Jun 04:54:18 04:58:38 38° 69° (ENE) 05:02:59 437.345
Cosmos 2499 27 Jun 05:01:02 05:07:57 25° 62° (ENE) 05:14:36 435.465 / 435.565
BEESAT 2 27 Jun 05:06:07 05:09:28 25° 316° (NW) 05:12:50 435.950
AIST 1 27 Jun 05:07:16 05:11:26 54° 265° (W) 05:15:34
ITAMSAT 1 27 Jun 05:07:43 05:12:12 30° 295° (WNW) 05:16:40 435.822/435.867
HORYU 2 27 Jun 05:08:54 05:12:31 23° 94° (E) 05:16:06 437.375
MOZHAYETS 4 27 Jun 05:09:29 05:12:59 21° 267° (W) 05:16:31
O/OREOS (USA 219) 27 Jun 05:20:05 05:22:14 13° 312° (NW) 05:24:23 437.305
AO-85 27 Jun 05:23:17 05:26:27 18° 34° (NE) 05:29:26 145.980
AO-7 27 Jun 05:32:53 05:41:15 73° 293° (WNW) 05:49:34 29.400- 29.500
AIST 2 27 Jun 05:33:29 05:37:22 43° 118° (ESE) 05:41:19 435.215
STRAND 1 27 Jun 05:38:34 05:39:57 11° 55° (NE) 05:41:20 437.568
GONETS M04 27 Jun 05:51:46 06:00:27 66° 78° (ENE) 06:09:08
CUTE-I 27 Jun 05:58:16 06:00:22 12° 87° (E) 06:02:28 437.470
BRITE-PL 27 Jun 06:26:37 06:30:07 25° 95° (E) 06:33:35 437.365/2234.400
NOAA 15 27 Jun 06:29:51 06:34:34 32° 96° (E) 06:39:13 137.62
CUBESAT XI-V 27 Jun 06:32:17 06:36:07 24° 266° (W) 06:39:57 437.345
NOAA 18 27 Jun 06:42:34 06:47:35 34° 97° (E) 06:52:35 137.9125
HORYU 2 27 Jun 06:45:01 06:49:09 37° 291° (WNW) 06:53:17 437.375
Cosmos 2499 27 Jun 06:53:20 07:02:13 82° 265° (W) 07:10:34 435.465 / 435.565
Cubesat XI-IV 27 Jun 07:00:57 07:06:08 45° 99° (E) 07:11:16 437.490
AO-85 27 Jun 07:03:01 07:07:37 85° 240° (WSW) 07:11:48 145.980
CUSAT 1 27 Jun 07:07:28 07:14:13 33° 90° (E) 07:20:07 437.405
GOMX 1 27 Jun 07:08:05 07:11:51 32° 97° (E) 07:15:44 467.674
LilacSat-2 27 Jun 07:10:34 07:14:24 57° 100° (E) 07:18:14 437.200
AIST 2 27 Jun 07:12:40 07:16:02 24° 317° (NW) 07:19:26 435.215
STRAND 1 27 Jun 07:13:05 07:18:12 73° 73° (ENE) 07:23:22 437.568
PHONESAT 2.4 27 Jun 07:14:04 07:14:39 10° 151° (SSE) 07:15:15 2401.200-2431.200
DANDE 27 Jun 07:16:05 07:22:08 23° 83° (E) 07:27:54 436.750
AO-7 27 Jun 07:27:12 07:32:39 20° 314° (NW) 07:38:06 29.400- 29.500
CUTE-I 27 Jun 07:35:44 07:41:09 90° 289° (WNW) 07:46:32 437.470
CINEMA 3 27 Jun 07:47:05 07:49:11 13° 90° (E) 07:51:18 145.822/145.860
GONETS M04 27 Jun 07:49:32 07:56:35 29° 278° (W) 08:03:41
CUTE 1.7 + AOD 2 27 Jun 07:52:10 07:53:33 11° 88° (E) 07:54:54 437.475
BRITE-PL 27 Jun 08:05:05 08:08:38 27° 292° (WNW) 08:12:09 437.365/2234.400
NOAA 15 27 Jun 08:09:36 08:14:20 35° 294° (WNW) 08:19:02 137.62
DOVE 4 27 Jun 08:15:46 08:20:03 80° 102° (ESE) 08:24:34 437.250
NOAA 18 27 Jun 08:23:12 08:28:14 37° 294° (WNW) 08:33:17 137.9125
HO-68 27 Jun 08:32:17 08:38:58 39° 97° (E) 08:45:37 435.675
PRISM 27 Jun 08:38:15 08:42:25 86° 75° (ENE) 08:46:35 437.425
AAUSAT CUBESAT 2 27 Jun 08:41:26 08:44:01 16° 91° (E) 08:46:34 437.432
Cubesat XI-IV 27 Jun 08:41:30 08:45:58 27° 297° (WNW) 08:50:24 437.490
UWE-3 27 Jun 08:45:46 08:47:22 12° 88° (E) 08:48:57 435.000/436.395/437.385
LilacSat-2 27 Jun 08:46:30 08:48:15 13° 297° (WNW) 08:49:59 437.200
GOMX 1 27 Jun 08:46:32 08:49:51 23° 293° (WNW) 08:53:14 467.674
PHONESAT 2.4 27 Jun 08:47:57 08:50:41 29° 167° (SSE) 08:53:26 2401.200-2431.200
CUSAT 1 27 Jun 08:48:31 08:56:07 53° 284° (WNW) 09:02:34 437.405
Cosmos 2499 27 Jun 08:48:36 08:53:50 18° 286° (WNW) 08:58:57 435.465 / 435.565
STRAND 1 27 Jun 08:55:05 08:57:56 15° 271° (W) 09:00:48 437.568
DANDE 27 Jun 08:55:46 09:04:14 87° 280° (W) 09:12:05 436.750
TIGRISAT 27 Jun 09:00:10 09:00:20 10° 58° (ENE) 09:00:29 435.000
UNISAT 6 27 Jun 09:03:15 09:04:52 12° 59° (ENE) 09:06:29 437.425
CANX-2 27 Jun 09:05:13 09:09:33 81° 102° (ESE) 09:13:50 2200.000
COMPASS 1 27 Jun 09:12:57 09:16:58 43° 98° (E) 09:20:57 437.405
M-CUBED/EXP-1 PRIME 27 Jun 09:14:19 09:16:48 16° 99° (E) 09:19:23 437.505
CUTE-I 27 Jun 09:17:36 09:20:26 15° 303° (WNW) 09:23:15 437.470
CINEMA 3 27 Jun 09:22:15 09:26:43 69° 286° (WNW) 09:31:23 145.822/145.860
CUTE 1.7 + AOD 2 27 Jun 09:25:34 09:29:52 70° 284° (WNW) 09:34:06 437.475
CUBEBUG 2 27 Jun 09:29:18 09:33:44 46° 99° (E) 09:38:15 437.445
SEEDS 27 Jun 09:32:15 09:36:32 81° 282° (WNW) 09:40:44 437.485
ISS 27 Jun 09:33:42 09:36:46 38° 141° (SE) 09:39:50 145.825
ANTELSAT 27 Jun 09:40:43 09:44:21 27° 67° (ENE) 09:48:03 437.575/2403.000
DOVE 4 27 Jun 09:55:54 09:57:14 11° 299° (WNW) 09:58:33 437.250
PCSat 27 Jun 09:57:00 10:00:16 16° 35° (NE) 10:03:31 145.827
ZACube-1 27 Jun 10:02:04 10:06:28 47° 99° (E) 10:10:53 437.345
AUBIESAT-1 27 Jun 10:09:35 10:13:24 54° 106° (ESE) 10:17:29 437.475
Oscar 11 27 Jun 10:14:54 10:19:16 67° 102° (ESE) 10:23:35 145.826/435.025
AAUSAT CUBESAT 2 27 Jun 10:15:44 10:19:45 47° 288° (WNW) 10:23:44 437.432
UWE-3 27 Jun 10:19:44 10:24:19 78° 284° (WNW) 10:28:58 435.000/436.395/437.385
HO-68 27 Jun 10:19:59 10:26:45 45° 296° (WNW) 10:33:28 435.675
FUNcube-1 27 Jun 10:20:23 10:24:55 69° 102° (ESE) 10:29:28 145.935
PHONESAT 2.4 27 Jun 10:24:05 10:27:00 39° 183° (S) 10:29:55 2401.200-2431.200
TIGRISAT 27 Jun 10:31:57 10:36:15 87° 72° (ENE) 10:40:39 435.000
UNISAT 6 27 Jun 10:36:37 10:40:55 79° 258° (WSW) 10:45:20 437.425
CUSAT 1 27 Jun 10:38:03 10:39:20 10° 302° (WNW) 10:40:34 437.405
DELFI C3 27 Jun 10:39:10 10:43:08 56° 101° (E) 10:47:01 145.870
DANDE 27 Jun 10:41:49 10:47:57 22° 297° (WNW) 10:53:45 436.750
CANX-2 27 Jun 10:43:26 10:44:45 11° 300° (WNW) 10:46:05 2200.000
M-CUBED/EXP-1 PRIME 27 Jun 10:47:51 10:51:29 44° 293° (WNW) 10:55:23 437.505
COMPASS 1 27 Jun 10:49:18 10:52:13 18° 295° (WNW) 10:55:07 437.405
BUGSAT 1 27 Jun 10:57:30 10:59:18 13° 61° (ENE) 11:01:05 437.445
JAS-2 27 Jun 11:04:07 11:09:09 20° 58° (ENE) 11:13:55 435.910
CUBEBUG 2 27 Jun 11:06:40 11:10:04 21° 295° (WNW) 11:13:30 437.445
NANOSAT C BR1 27 Jun 11:07:34 11:11:25 37° 70° (ENE) 11:15:17 145.865
BEESAT 3 27 Jun 11:09:13 11:12:47 31° 47° (NE) 11:16:19 437.485
QB50P1 27 Jun 11:09:39 11:13:35 40° 70° (ENE) 11:17:32 145.935-145.965
ISS 27 Jun 11:10:08 11:13:13 38° 339° (NNW) 11:16:19 145.825
POPSAT HIP 1 27 Jun 11:12:42 11:16:39 43° 71° (ENE) 11:20:39 437.405
Cosmos 2491 27 Jun 11:13:30 11:21:20 35° 68° (ENE) 11:29:06 435.465 / 435.565
ANTELSAT 27 Jun 11:17:12 11:20:59 30° 264° (W) 11:24:51 437.575/2403.000
QB50P2 27 Jun 11:24:27 11:28:35 63° 74° (ENE) 11:32:46 145.880/145.840
POLYITAN 1 27 Jun 11:27:04 11:31:12 64° 74° (ENE) 11:35:24 437.675
HUMSAT D 27 Jun 11:27:24 11:31:45 90° 294° (WNW) 11:36:04 437.325/437.525
RS-15 27 Jun 11:28:06 11:38:11 39° 106° (ESE) 11:48:42 29.354- 29.394
DUCHIFAT 1 27 Jun 11:28:32 11:32:37 58° 74° (ENE) 11:36:44 145.980
ZACube-1 27 Jun 11:39:09 11:42:26 20° 295° (WNW) 11:45:44 437.345
PCSat 27 Jun 11:39:15 11:44:41 70° 57° (ENE) 11:50:05 145.827
50 SAT 27 Jun 11:42:03 11:43:58 13° 91° (E) 11:45:51 437.505
BEESAT 2 27 Jun 11:44:14 11:48:00 38° 49° (NE) 11:51:45 435.950
AUBIESAT-1 27 Jun 11:45:19 11:47:34 15° 301° (WNW) 11:49:54 437.475
Oscar 11 27 Jun 11:52:39 11:54:51 14° 299° (WNW) 11:57:03 145.826/435.025
CUBEBUG 1 27 Jun 11:57:30 12:00:57 23° 94° (E) 12:04:22 437.445
FUNcube-1 27 Jun 11:58:11 12:00:38 15° 298° (WNW) 12:03:05 145.935
PHONESAT 2.4 27 Jun 12:00:49 12:03:14 21° 200° (SSW) 12:05:39 2401.200-2431.200
VELOX 1 27 Jun 12:01:58 12:05:30 23° 94° (E) 12:09:00 145.980
O/OREOS (USA 219) 27 Jun 12:07:18 12:11:02 25° 55° (NE) 12:14:45 437.305
DELFI C3 27 Jun 12:15:31 12:17:31 14° 297° (WNW) 12:19:32 145.870
BUGSAT 1 27 Jun 12:30:12 12:34:11 61° 259° (W) 12:38:10 437.445
ESTCUBE 1 27 Jun 12:32:26 12:36:58 79° 103° (ESE) 12:41:27 437.505/2401.250
AISAT 27 Jun 12:42:03 12:46:26 65° 102° (ESE) 12:50:47 437.250
NANOSAT C BR1 27 Jun 12:44:09 12:47:16 20° 267° (W) 12:50:25 145.865
JAS-2 27 Jun 12:45:42 12:53:25 87° 73° (ENE) 13:00:27 435.910
QB50P1 27 Jun 12:46:36 12:49:32 18° 267° (W) 12:52:30 145.935-145.965
BEESAT 3 27 Jun 12:46:59 12:50:24 28° 244° (WSW) 12:53:46 437.485
ISS 27 Jun 12:47:39 12:50:17 22° 359° (N) 12:52:54 145.825
Oscar 19 27 Jun 12:49:01 12:53:41 36° 67° (ENE) 12:58:21 437.125/150
UKube-1 27 Jun 12:49:26 12:53:35 45° 100° (E) 12:57:43 .
POPSAT HIP 1 27 Jun 12:49:51 12:52:39 17° 268° (W) 12:55:29 437.405
SPROUT 27 Jun 12:53:34 12:57:32 36° 97° (E) 13:01:30 437.525
AO-7 27 Jun 12:56:03 12:58:33 12° 37° (NE) 13:01:04 29.400- 29.500
Gurwin Techsat 1B 27 Jun 12:56:41 13:00:31 21° 61° (ENE) 13:04:21 435.225
YUBILEINY 27 Jun 12:57:10 13:05:34 56° 90° (E) 13:14:03 435.215
Cosmos 2504 27 Jun 13:02:01 13:07:14 19° 75° (ENE) 13:12:37 435.465 / 435.565
QB50P2 27 Jun 13:03:07 13:04:49 12° 271° (W) 13:06:31 145.880/145.840
POLYITAN 1 27 Jun 13:05:54 13:07:27 12° 271° (W) 13:09:01 437.675
HUMSAT D 27 Jun 13:06:00 13:06:40 10° 301° (WNW) 13:07:20 437.325/437.525
DX 1 27 Jun 13:06:46 13:11:07 88° 103° (ESE) 13:15:28 434.975-435.025
DUCHIFAT 1 27 Jun 13:06:48 13:08:42 13° 270° (W) 13:10:36 145.980
ITAMSAT 1 27 Jun 13:12:44 13:14:00 11° 54° (NE) 13:15:17 435.822/435.867
